Погода Троицкое

Погода Троицкое : погода сейчас, прогноз погоды и архив. Всё, что Вы хотите узнать о погоде Троицкое!

Хотите узнать прогноз погоды Троицкое? Тогда Вам сюда: Погода Троицкое

Поиск расширенной информации на нашем сайте:

Другие новости

Новости СМИ2

Главная страница сайта

Новости сайта

03.07.2017

Напоминаем, что на нашем специализированном сайте Метеоцентр.Азия вы можете получить высокодетализированные автоматические прогнозы погоды по пунктам России, СНГ и мира в авиационном формате (включающие направление и скорость ветра, видимость, явления погоды, количество и форму облачности, нижнюю и верхнюю границу облачности).


Погода Троицкое - сегодня

Время (UTC), дата Ветер
(°,м/с) 
Видим.   Явления Облачность Т
(°С)
Тd
(°С)
f(%) Тe
(°С)
Pmin
(гПа)
dP
(гПа)
Po
(мм)
O2
(г/м3)
Тmin Tmax R s Состояние
почвы
00 18.02.18 200 (Ю) 20000 м    ясно 
-18.8 -24.4 61 -25  1020  0.9  762  331           
03 18.02.18 220 (ЮЗ) 20000 м    ясно 
-13.7 -24.1 41 -19  1018.8  -1.1  761  324           
06 18.02.18 230 (ЮЗ) 4{10}  20000 м    ясно 
-13 -22.8 44 -17  1018.1  -0.7  760  323           
09 18.02.18 200 (Ю) 20000 м    ясно 
-15.1 -23.6 48 -20  1018.1  760  326    -12.9       
12 18.02.18 190 (Ю) 20000 м    ясно 
-17.5 -24.3 55 -23  1017.9  -0.3  760  329           
15 18.02.18 190 (Ю) 20000 м    ясно 
-18.5 -24.1 61 -24  1016.9  -1  759  330           
18 18.02.18 190 (Ю) 20000 м    ясно 
-18.2 -23.4 64 -24  1015.5  -1.4  758  329           
00 19.02.18 200 (Ю) 20000 м    ясно 
-17.1 -24.1 55 -23  1013.5  -0.7  757  327  -19.4         
03 19.02.18 220 (ЮЗ) 4{11}  20000 м    8/0 верхняя 
[Cs]
-13.7 -22.4 48 -18  1012.5  -1  756  322           
06 19.02.18 200 (Ю) 20000 м    8/0 верхняя 
[Cs]
-11.1 -20.5 46 -16  1011.2  -1.3  755  319           
12 19.02.18 200 (Ю) 20000 м    ясно 
-13.8 -20.4 57 -19  1011.1  -0.5  755  322           
15 19.02.18 200 (Ю) 20000 м    ясно 
-16.7 -22 63 -21  1010.5  -0.6  755  325           
18 19.02.18 200 (Ю) 20000 м    ясно 
-19.9 -23.8 71 -25  1010  -0.6  754  329           
00 20.02.18 200 (Ю) 20000 м    ясно 
-18.1 -26.5 48 -24  1010  0.6  754  327           
03 20.02.18 220 (ЮЗ) 20000 м    ясно 
-14.8 -24.6 43 -18  1010.2  0.2  754  323           
06 20.02.18 220 (ЮЗ) 20000 м    4/0 верхняя 
[Ci fib]
-13.5 -22.3 47 -17  1010.5  0.3  755  321           
12 20.02.18 190 (Ю) 20000 м    ясно 
-17.1 -23.9 55 -24  1011.8  0.3  756  326           
15 20.02.18 190 (Ю) 20000 м    ясно 
-18.4 -24.7 58 -25  1011.6  -0.3  755  328           
18 20.02.18 190 (Ю) 20000 м    ясно 
-19.7 -25.7 59 -25  1011.6  755  330           
03 21.02.18 210 (ЮЗ) 4{10}  20000 м    ясно 
-15.7 -26.2 40 -21  1012.9  0.1  756  325           
06 21.02.18 210 (ЮЗ) 20000 м    3/0 верхняя 
[Ci fib]
-13.3 -24.9 37 -18  1012.4  -0.5  756  322           
09 21.02.18 190 (Ю) 20000 м    ясно 
-14.9 -23.5 48 -20  1012.9  0.5  756  324    -13       
12 21.02.18 200 (Ю) 20000 м    ясно 
-16.3 -23.5 54 -21  1013.9  757  326           
15 21.02.18 200 (Ю) 20000 м    ясно 
-17.9 -23.5 62 -22  1014  757  328           
18 21.02.18 190 (Ю) 20000 м    ясно 
-22.8 -26.2 74 -26  1014  0.1  757  335           
Время (UTC), дата Ветер
(°,м/с) 
Видим.   Явления Облачность Т
(°С)
Тd
(°С)
f(%) Тe
(°С)
Pmin
(гПа)
dP
(гПа)
Po
(мм)
O2
(г/м3)
Тmin Tmax R s Состояние
почвы

Для получения пояснительной информации подведите курсор к названию столбца.

ПОГОДА Троицкое - архив

Всё, что Вы хотите узнать о погоде Троицкое - удобно и подробно!

Выберите нужную дату (начиная с 1 января 2015* года) и нажмите кнопку "Найти".
Будут отображены архивные сводки погоды по пункту Троицкое, начиная с указанной даты.


Отображать данные в формате CSV (для использования в таблицах Excel)


Внимание! Наш архив погоды предназначен исключительно для личного некоммерческого использования в познавательных целях. Если Вам необходимы официальные справки о состоянии погоды (для производственных, юридических, коммерческих и т.п. целей), обращайтесь в органы Росгидромета.

*Примечание: данная дата относится к архиву по метеостанциям СССР (Россия, СНГ, Балтия).
Архив по метеостанциям Зарубежной Европы и Азии (кроме Китая) хранится 10 дней, по другим регионам земного шара (Китай, Африка, Америка, Австралия, Океания) - 1 день.

Троицкое - район местоположения метеостанции


Название, широта, долгота, высота метеостанции:
Троицкое 49.4°ш. 136.6°д. 33 м над ур. моря [Российская Федерация]

Дополнительная информация

В oтличие oт бoльшинства пoгoдных сайтoв мы публикуем пoдрoбную метеoинфoрмацию в детальнoм прoфессиoнальнoм фoрмате.

Характеристики температуры и влажнoсти вoздуха измеряются на высoте 2 м в тени вдали oт зданий и деревьев.
Скoрoсть ветра измеряется на высoте 10 м (на урoвне рoста челoвека скoрoсть ветра ниже в 1.5-2 раза). Если метеoстанция нахoдится в гoрoде или в лесу, тo скoрoсть ветра занижена на 2-4 м/с пo сравнению с oткрытым местoм. Скoрoсть ветра над акватoриями крупных рек и oзёр, а также на вершинах хoлмoв на 2-5 м/с выше, чем в oбычных услoвиях.
Атмoсфернoе давление в разных тoчках местнoсти мoжет значительнo oтличаться oт давления на метеoстанции, в зависимoсти oт услoвий рельефа (при пoдъёме на 10 м давление пoнижается примернo на 1 мм рт.ст.).